Weather observations for the past three days for
Cambridge-Dorchester Airport
Imperial (Metric)
Date Time (edt) Wind (mph) Vis. (mi.) Weather Sky Cond. Temperature (ºF) Relative Humidity Wind Chill (°F) Heat Index (°F) Pressure Precipitation (in)
Air Dwpt 6 hour altimeter (in) sea level (mb) 1 hr 3 hr 6 hr
Max. Min.
24 12:05 SW 5 10.00 Mostly Cloudy BKN013 BKN017 BKN023 80.6 75.2 84% 86 30.12 0.0
24 11:45 Vrbl 5 10.00 Overcast SCT013 BKN018 OVC032 80.6 75.2 84% 86 30.11 0.0
24 11:25 Vrbl 3 9.00 Mostly Cloudy SCT020 BKN025 BKN031 78.8 75.2 89% 82 30.11 0.0
24 11:05 Calm 10.00 Mostly Cloudy FEW011 BKN024 BKN050 78.8 75.2 89% 82 30.11 0.0
24 10:45 Calm 10.00 Overcast SCT012 BKN018 OVC050 78.8 75.2 89% 82 30.11 0.0
24 10:25 S 6 10.00 Overcast SCT012 SCT016 OVC023 78.8 75.2 89% 82 30.11 0.0
24 10:05 Vrbl 3 10.00 Overcast FEW012 OVC023 78.8 75.2 89% 82 30.1 0.0
24 09:45 S 6 10.00 Overcast FEW014 OVC023 77 75.2 94% 78 30.1 0.0
24 09:25 Calm 10.00 Overcast OVC019 77 75.2 94% 78 30.1 0.0
24 09:05 Calm 10.00 Overcast OVC017 77 75.2 94% 78 30.1 0.0
24 08:45 Calm 10.00 Overcast BKN013 OVC019 77 75.2 94% 78 30.1 0.0
24 08:25 Calm 10.00 Overcast OVC013 77 75.2 94% 78 30.11 0.0
24 08:05 Calm 10.00 Overcast OVC016 77 75.2 94% 78 30.1 0.0
24 07:45 Calm 10.00 Overcast OVC017 77 75.2 94% 78 30.1 0.0
24 07:25 Calm 10.00 Mostly Cloudy BKN018 BKN030 BKN070 77 75.2 94% 78 30.09 0.0
24 07:05 Calm 10.00 Mostly Cloudy SCT022 SCT031 BKN055 75.2 75.2 100% 73 30.09 0.0
24 06:45 Calm 10.00 Overcast BKN024 BKN029 OVC034 75.2 75.2 100% 73 30.09 0.0
24 06:25 Calm 10.00 Overcast SCT030 OVC035 75.2 75.2 100% 73 30.09 0.0
24 06:05 Calm 9.00 Mostly Cloudy SCT034 BKN050 73.4 73.4 100% 30.09 0.0
24 05:45 Calm 9.00 A Few Clouds FEW003 FEW042 73.4 73.4 100% 30.08 0.0
24 05:25 Calm 10.00 A Few Clouds FEW003 FEW037 FEW043 73.4 73.4 100% 30.08 0.0
24 05:05 Calm 10.00 Mostly Cloudy SCT003 BKN037 73.4 73.4 100% 30.08 0.0
24 04:45 Calm 10.00 Overcast BKN003 OVC026 73.4 73.4 100% 30.08 0.0
24 04:25 SE 6 10.00 Overcast OVC004 73.4 73.4 100% 30.09 0.0
24 04:05 SE 6 10.00 Overcast OVC004 73.4 73.4 100% 30.09 0.0
24 03:45 SE 6 9.00 Overcast BKN007 BKN031 OVC065 73.4 73.4 100% 30.09 0.0
24 03:25 SE 5 10.00 Overcast BKN010 BKN028 OVC090 73.4 73.4 100% 30.09 0.0
24 03:05 E 5 10.00 Overcast BKN011 BKN024 OVC032 75.2 73.4 94% 74 30.09 0.0
24 02:45 SE 5 10.00 Overcast BKN010 OVC021 75.2 73.4 94% 74 30.09 0.0
24 02:25 E 3 10.00 Overcast SCT007 BKN012 OVC024 75.2 73.4 94% 74 30.09 0.0
24 02:05 SE 6 10.00 Overcast SCT007 BKN011 OVC022 73.4 73.4 100% 30.1 0.0
24 01:45 Calm 10.00 Overcast OVC010 73.4 73.4 100% 30.1 0.0
24 01:25 Calm 10.00 Overcast BKN010 BKN060 OVC100 73.4 73.4 100% 30.1 0.0
24 01:05 Calm 10.00 Overcast FEW013 SCT100 OVC120 73.4 73.4 100% 30.1 0.0
24 00:45 Calm 10.00 Mostly Cloudy FEW013 SCT060 BKN120 73.4 73.4 100% 30.1 0.0
24 00:25 Calm 10.00 Mostly Cloudy FEW050 SCT065 BKN080 73.4 73.4 100% 30.1 0.0
24 00:05 Calm 10.00 Mostly Cloudy FEW013 SCT060 BKN075 73.4 73.4 100% 30.11 0.0
23 23:45 Calm 10.00 Mostly Cloudy SCT012 SCT020 BKN120 73.4 73.4 100% 30.11 0.0
23 23:25 Calm 10.00 Overcast BKN011 BKN020 OVC110 73.4 73.4 100% 30.11 0.0
23 23:05 Calm 10.00 Overcast BKN010 BKN042 OVC110 73.4 73.4 100% 30.11 0.0
23 22:45 Calm 10.00 Overcast BKN037 BKN050 OVC110 73.4 73.4 100% 30.11 0.0
23 22:25 Calm 10.00 Overcast FEW009 BKN038 OVC085 73.4 73.4 100% 30.1 0.0
23 22:05 Calm 10.00 Overcast FEW009 BKN037 OVC110 73.4 73.4 100% 30.1 0.0
23 21:45 Calm 10.00 Mostly Cloudy FEW009 SCT038 BKN075 73.4 73.4 100% 30.1 0.0
23 21:25 Calm 10.00 Mostly Cloudy FEW010 SCT034 BKN045 73.4 73.4 100% 30.1 0.0
23 21:05 S 6 10.00 Mostly Cloudy FEW012 SCT037 BKN050 73.4 73.4 100% 30.09 0.0
23 20:45 S 3 10.00 Overcast SCT041 BKN060 OVC110 75.2 73.4 94% 74 30.09 0.0
23 20:25 S 7 G 15 10.00 Partly Cloudy FEW055 SCT070 SCT095 77 71.6 83% 78 30.1 0.0
23 20:05 S 12 G 25 10.00 Partly Cloudy FEW024 FEW029 SCT034 77 71.6 83% 78 30.1 0.0
23 19:45 S 15 G 24 10.00 Mostly Cloudy FEW024 SCT042 BKN049 80.6 73.4 79% 85 30.1 0.0
23 19:25 Vrbl 3 10.00 Mostly Cloudy BKN090 82.4 71.6 70% 87 30.1 0.0
23 19:05 S 5 10.00 Partly Cloudy SCT090 82.4 71.6 70% 87 30.09 0.0
23 18:45 SE 3 10.00 Fair CLR 82.4 71.6 70% 87 30.08 0.0
23 18:25 Calm 10.00 Fair CLR 82.4 71.6 70% 87 30.07 0.0
23 18:05 Calm 10.00 Fair CLR 82.4 69.8 66% 86 30.06 0.0
23 17:45 Calm 10.00 Fair CLR 84.2 66.2 55% 87 30.06 0.0
23 17:25 NE 5 10.00 Fair CLR 84.2 66.2 55% 87 30.06 0.0
23 17:05 N 5 10.00 Fair CLR 84.2 66.2 55% 87 30.06 0.0
23 16:45 N 5 10.00 Fair CLR 84.2 66.2 55% 87 30.06 0.0
23 16:25 N 8 10.00 Fair CLR 84.2 64.4 51% 86 30.06 0.0
23 16:05 N 8 10.00 Fair CLR 84.2 68 58% 87 30.06 0.0
23 15:45 NW 7 10.00 Fair CLR 84.2 71.6 66% 90 30.06 0.0
23 15:25 NW 9 10.00 Fair CLR 86 71.6 62% 92 30.06 0.0
23 15:05 Vrbl 6 10.00 Fair CLR 84.2 68 58% 87 30.06 0.0
23 14:45 Vrbl 3 10.00 Fair CLR 84.2 68 58% 87 30.07 0.0
23 14:25 NW 7 10.00 Fair CLR 84.2 68 58% 87 30.07 0.0
23 14:05 Vrbl 3 10.00 Fair CLR 84.2 69.8 62% 88 30.07 0.0
23 13:45 Vrbl 5 10.00 Fair CLR 82.4 69.8 66% 86 30.07 0.0
23 13:25 Vrbl 5 10.00 Fair CLR 82.4 69.8 66% 86 30.08 0.0
23 13:05 Vrbl 6 10.00 Fair CLR 82.4 69.8 66% 86 30.08 0.0
23 12:45 Vrbl 5 10.00 Fair CLR 82.4 69.8 66% 86 30.08 0.0
23 12:25 SW 6 10.00 Fair CLR 82.4 71.6 70% 87 30.07 0.0
23 12:05 W 7 10.00 Fair CLR 82.4 69.8 66% 86 30.07 0.0
23 11:45 W 5 10.00 A Few Clouds FEW028 80.6 69.8 70% 84 30.07 0.0
23 11:25 W 7 10.00 A Few Clouds FEW027 82.4 71.6 70% 87 30.08 0.0
23 11:05 NW 7 10.00 A Few Clouds FEW025 80.6 69.8 70% 84 30.07 0.0
23 10:45 NW 10 10.00 A Few Clouds FEW025 80.6 71.6 74% 85 30.07 0.0
23 10:25 W 7 10.00 Partly Cloudy SCT023 SCT028 80.6 71.6 74% 85 30.07 0.0
23 10:05 Vrbl 7 10.00 Mostly Cloudy BKN022 80.6 71.6 74% 85 30.06 0.0
23 09:45 W 8 10.00 Partly Cloudy SCT022 78.8 71.6 79% 82 30.07 0.0
23 09:25 Vrbl 7 G 13 10.00 Fair CLR 78.8 71.6 79% 82 30.06 0.0
23 09:05 W 6 10.00 A Few Clouds FEW024 78.8 71.6 79% 82 30.06 0.0
23 08:45 NW 7 G 15 10.00 Fair CLR 77 71.6 83% 78 30.05 0.0
23 08:25 W 6 10.00 Fair CLR 77 73.4 89% 78 30.05 0.0
23 08:05 W 7 10.00 Fair CLR 75.2 73.4 94% 74 30.04 0.0
23 07:45 W 5 10.00 A Few Clouds FEW020 75.2 73.4 94% 74 30.04 0.0
23 07:25 W 5 10.00 Partly Cloudy SCT021 75.2 73.4 94% 74 30.03 0.0
23 07:05 W 6 10.00 Partly Cloudy SCT020 75.2 73.4 94% 74 30.03 0.0
23 06:45 SW 7 10.00 Mostly Cloudy BKN020 75.2 73.4 94% 74 30.02 0.0
23 06:25 Vrbl 5 10.00 Fair CLR 73.4 73.4 100% 30 0.0
23 06:05 SW 5 10.00 Partly Cloudy SCT015 SCT022 73.4 73.4 100% 29.99 0.0
23 05:45 Vrbl 3 10.00 Overcast OVC015 73.4 73.4 100% 29.99 0.0
23 05:25 Calm 10.00 Mostly Cloudy BKN018 73.4 73.4 100% 29.99 0.0
23 05:05 Calm 10.00 Fair CLR 73.4 73.4 100% 29.98 0.0
23 04:45 Calm 10.00 Fair CLR 73.4 73.4 100% 29.98 0.0
23 04:25 Vrbl 5 10.00 A Few Clouds FEW013 FEW032 75.2 73.4 94% 74 29.97 0.0
23 04:05 S 6 10.00 Fair CLR 75.2 73.4 94% 74 29.97 0.0
23 03:45 Vrbl 5 G 12 10.00 Fair CLR 75.2 73.4 94% 74 29.96 0.0
23 03:25 Vrbl 5 10.00 Fair CLR 75.2 73.4 94% 74 29.96 0.0
23 03:05 SW 3 10.00 Fair CLR 73.4 73.4 100% 29.96 0.0
23 02:45 Vrbl 5 10.00 A Few Clouds FEW031 FEW044 FEW055 75.2 73.4 94% 74 29.96 0.0
23 02:25 S 6 8.00 Mostly Cloudy SCT031 SCT050 BKN080 75.2 73.4 94% 74 29.96 0.0
23 02:05 Calm 10.00 Partly Cloudy FEW070 FEW090 SCT120 75.2 73.4 94% 74 29.98 0.0
23 01:45 Vrbl 3 10.00 Mostly Cloudy FEW050 FEW070 BKN085 75.2 73.4 94% 74 29.98 0.0
23 01:25 Calm 10.00 Partly Cloudy SCT085 75.2 73.4 94% 74 29.98 0.0
23 00:45 S 7 10.00 A Few Clouds FEW080 75.2 73.4 94% 74 29.98 0.0
23 00:25 S 7 10.00 Fair CLR 75.2 73.4 94% 74 29.97 0.0
23 00:05 S 6 10.00 Fair CLR 73.4 73.4 100% 29.97 0.0
22 23:45 S 6 10.00 Fair CLR 71.6 71.6 100% 29.97 0.0
22 23:25 SE 6 10.00 A Few Clouds FEW003 71.6 71.6 100% 29.98 0.0
22 23:05 SE 5 10.00 Fair CLR 71.6 71.6 100% 29.98 0.0
22 22:25 SE 6 10.00 Fair CLR 71.6 71.6 100% 29.99 0.0
22 22:05 E 5 10.00 A Few Clouds FEW003 71.6 71.6 100% 29.98 0.0
22 21:45 SE 6 10.00 Mostly Cloudy SCT003 SCT019 BKN060 71.6 71.6 100% 29.98 0.0
22 21:25 E 6 10.00 Overcast SCT004 BKN017 OVC060 71.6 71.6 100% 29.98 0.0
22 21:05 E 5 10.00 Mostly Cloudy FEW004 SCT023 BKN031 71.6 71.6 100% 29.97 0.0
22 20:45 SE 5 10.00 Mostly Cloudy FEW004 SCT023 BKN035 71.6 71.6 100% 29.97 0.0
22 20:25 SE 7 10.00 Mostly Cloudy FEW004 SCT025 BKN045 71.6 71.6 100% 29.97 0.0
22 20:05 E 8 7.00 Overcast BKN004 BKN027 OVC120 71.6 71.6 100% 29.97 0.0
22 19:45 Vrbl 7 10.00 Mostly Cloudy BKN004 BKN029 BKN035 71.6 71.6 100% 29.96 0.0
22 19:25 E 7 10.00 Mostly Cloudy SCT004 SCT027 BKN034 71.6 71.6 100% 29.97 0.0
22 19:05 E 7 3.00 Fog/Mist BKN003 BKN026 OVC040 71.6 71.6 100% 29.98 0.0
22 18:45 Calm 1.25 Fog/Mist OVC003 71.6 71.6 100% 29.99 0.0
22 18:25 Calm 2.50 Fog/Mist FEW004 BKN029 OVC035 71.6 71.6 100% 29.98 0.0
22 18:05 E 8 3.00 Fog/Mist FEW004 SCT007 BKN031 73.4 71.6 94% 29.97 0.0
22 17:45 E 8 7.00 Overcast BKN008 BKN032 OVC041 73.4 71.6 94% 29.98 0.0
22 17:25 Calm 8.00 Mostly Cloudy FEW006 SCT011 BKN034 73.4 71.6 94% 29.98 0.0
22 17:05 E 6 10.00 Overcast FEW008 BKN036 OVC047 73.4 71.6 94% 29.99 0.0
22 16:45 E 8 10.00 Overcast BKN008 BKN021 OVC060 75.2 73.4 94% 74 29.99 0.0
22 16:25 E 8 10.00 Overcast SCT006 BKN011 OVC060 75.2 73.4 94% 74 29.99 0.0
22 16:05 SE 7 10.00 Mostly Cloudy SCT008 BKN021 BKN029 75.2 73.4 94% 74 30 0.0
22 15:45 E 7 5.00 Fog/Mist FEW008 FEW019 BKN048 75.2 73.4 94% 74 30.01 0.0
22 15:25 SE 5 10.00 Mostly Cloudy FEW044 BKN050 BKN075 75.2 73.4 94% 74 30.01 0.0
22 15:05 NE 6 7.00 Partly Cloudy FEW044 SCT050 73.4 71.6 94% 30.02 0.0
22 14:45 SE 5 2.00 Fog/Mist FEW035 FEW044 FEW065 71.6 69.8 94% 30.03 0.0
22 14:25 S 10 5.00 Fog/Mist SCT075 SCT085 73.4 69.8 89% 30.03 0.0
22 14:05 S 12 10.00 Partly Cloudy FEW070 SCT085 75.2 71.6 89% 75 30.03 0.0
22 13:45 S 9 G 16 10.00 Partly Cloudy FEW019 FEW025 SCT090 75.2 71.6 89% 75 30.03 0.0
22 13:25 S 12 G 20 2.00 Fog/Mist FEW004 SCT019 BKN025 75.2 73.4 94% 74 30.03 0.0
22 13:05 S 10 G 17 10.00 Mostly Cloudy SCT019 BKN027 BKN036 80.6 73.4 79% 85 30.03 0.0
22 12:45 S 13 10.00 Overcast SCT020 BKN033 OVC070 80.6 73.4 79% 85 30.04 0.0
22 12:25 SE 13 10.00 Mostly Cloudy FEW017 SCT038 BKN070 82.4 73.4 74% 88 30.04 0.0
22 12:05 S 13 G 18 10.00 Mostly Cloudy SCT017 SCT041 BKN055 82.4 75.2 79% 89 30.04 0.0
22 11:45 SE 10 10.00 Mostly Cloudy SCT018 BKN075 BKN085 82.4 75.2 79% 89 30.05 0.0
22 11:25 Vrbl 7 G 14 10.00 Mostly Cloudy FEW019 BKN080 80.6 73.4 79% 85 30.06 0.0
22 11:05 SE 8 10.00 Fair CLR 80.6 73.4 79% 85 30.06 0.0
22 10:45 SE 7 10.00 Fair CLR 80.6 75.2 84% 86 30.05 0.0
22 10:25 SE 7 10.00 A Few Clouds FEW120 78.8 75.2 89% 82 30.05 0.0
22 10:05 SE 7 10.00 Partly Cloudy FEW012 SCT120 78.8 75.2 89% 82 30.04 0.0
22 09:45 SE 7 10.00 A Few Clouds FEW012 FEW120 78.8 75.2 89% 82 30.05 0.0
22 09:25 SE 9 10.00 A Few Clouds FEW007 FEW033 77 75.2 94% 78 30.06 0.0
22 09:05 SE 12 10.00 Partly Cloudy SCT006 SCT034 77 75.2 94% 78 30.06 0.0
22 08:45 SE 7 10.00 Partly Cloudy SCT005 75.2 75.2 100% 73 30.07 0.0
22 08:25 SE 5 10.00 Partly Cloudy SCT004 75.2 73.4 94% 74 30.07 0.0
22 08:05 SE 6 10.00 A Few Clouds FEW004 75.2 73.4 94% 74 30.07 0.0
22 07:45 SE 6 9.00 A Few Clouds FEW003 73.4 73.4 100% 30.06 0.0
22 07:25 SE 6 8.00 Partly Cloudy SCT003 73.4 71.6 94% 30.05 0.0
22 07:05 SE 3 7.00 Mostly Cloudy BKN003 71.6 71.6 100% 30.05 0.0
22 06:45 SE 3 8.00 Overcast OVC003 71.6 71.6 100% 30.05 0.0
22 06:25 SE 5 9.00 Overcast OVC003 71.6 71.6 100% 30.05 0.0
22 06:05 SE 5 8.00 Overcast OVC003 71.6 71.6 100% 30.05 0.0
22 05:45 SE 5 5.00 Fog/Mist OVC003 71.6 71.6 100% 30.06 0.0
22 05:25 SE 5 5.00 Fog/Mist OVC003 71.6 71.6 100% 30.05 0.0
22 05:05 SE 5 6.00 Fog/Mist OVC003 71.6 71.6 100% 30.05 0.0
22 04:45 SE 6 6.00 Fog/Mist OVC003 71.6 71.6 100% 30.04 0.0
22 04:25 SE 6 9.00 Overcast OVC003 71.6 71.6 100% 30.04 0.0
22 04:05 SE 6 9.00 Overcast OVC003 71.6 71.6 100% 30.04 0.0
22 03:45 E 6 10.00 Overcast BKN004 OVC008 71.6 71.6 100% 30.05 0.0
22 03:25 SE 6 10.00 Mostly Cloudy BKN003 BKN008 71.6 71.6 100% 30.05 0.0
22 03:05 SE 5 10.00 A Few Clouds FEW003 71.6 71.6 100% 30.05 0.0
22 02:45 E 5 10.00 Fair CLR 71.6 71.6 100% 30.06 0.0
22 02:25 SE 5 10.00 Fair CLR 71.6 71.6 100% 30.06 0.0
22 02:05 SE 6 10.00 Fair CLR 71.6 71.6 100% 30.07 0.0
22 01:25 SE 6 10.00 Fair CLR 71.6 71.6 100% 30.07 0.0
22 00:45 SE 7 10.00 Fair CLR 73.4 71.6 94% 30.07 0.0
22 00:25 SE 5 10.00 Fair CLR 73.4 71.6 94% 30.07 0.0
22 00:05 SE 6 10.00 A Few Clouds FEW015 73.4 71.6 94% 30.07 0.0
21 23:45 SE 3 10.00 Fair CLR 73.4 71.6 94% 30.07 0.0
21 23:25 SE 6 10.00 Fair CLR 73.4 71.6 94% 30.07 0.0
21 23:05 SE 7 10.00 Fair CLR 75.2 71.6 89% 75 30.07 0.0
21 22:45 SE 6 10.00 A Few Clouds FEW110 75.2 73.4 94% 74 30.07 0.0
21 22:25 S 6 10.00 Mostly Cloudy BKN110 75.2 73.4 94% 74 30.07 0.0
21 22:05 SE 7 10.00 Partly Cloudy SCT110 75.2 73.4 94% 74 30.06 0.0
21 21:45 S 3 10.00 Fair CLR 77 73.4 89% 78 30.05 0.0
21 21:25 Calm 10.00 Fair CLR 77 73.4 89% 78 30.05 0.0
21 21:05 SE 3 10.00 Fair CLR 77 71.6 83% 78 30.04 0.0
21 20:45 Calm 10.00 Fair CLR 78.8 71.6 79% 82 30.03 0.0
21 20:25 S 7 10.00 Fair CLR 78.8 71.6 79% 82 30.03 0.0
21 20:05 S 7 10.00 Fair CLR 78.8 71.6 79% 82 30.03 0.0
21 19:45 S 7 10.00 Fair CLR 80.6 73.4 79% 85 30.02 0.0
21 19:25 S 9 10.00 Fair CLR 82.4 73.4 74% 88 30.02 0.0
21 19:05 S 8 10.00 A Few Clouds FEW110 82.4 71.6 70% 87 30.02 0.0
21 18:45 S 7 10.00 Fair CLR 82.4 69.8 66% 86 30.02 0.0
21 18:25 S 5 10.00 A Few Clouds FEW090 84.2 69.8 62% 88 30.01 0.0
21 18:05 Vrbl 6 G 15 10.00 A Few Clouds FEW030 82.4 71.6 70% 87 30.02 0.0
21 17:45 S 7 G 14 10.00 A Few Clouds FEW030 84.2 71.6 66% 90 30.02 0.0
21 17:25 S 9 G 15 10.00 A Few Clouds FEW032 84.2 73.4 70% 91 30.02 0.0
21 17:05 Vrbl 7 G 14 10.00 Mostly Cloudy SCT031 BKN039 84.2 71.6 66% 90 30.02 0.0
21 16:45 Vrbl 6 G 12 10.00 Mostly Cloudy SCT032 BKN039 BKN045 86 73.4 66% 93 30.02 0.0
21 16:25 S 10 10.00 A Few Clouds FEW032 FEW045 FEW050 84.2 71.6 66% 90 30.02 0.0
21 16:05 S 9 10.00 Partly Cloudy FEW034 SCT050 84.2 71.6 66% 90 30.02 0.0
21 15:45 Vrbl 5 G 12 10.00 Mostly Cloudy BKN032 BKN038 BKN049 84.2 71.6 66% 90 30.02 0.0
21 15:25 Vrbl 7 10.00 Mostly Cloudy BKN032 BKN037 BKN080 86 73.4 66% 93 30.02 0.0
21 15:05 Vrbl 6 10.00 Mostly Cloudy SCT031 SCT036 BKN045 84.2 73.4 70% 91 30.04 0.0
21 14:45 Vrbl 3 10.00 Overcast BKN030 BKN035 OVC045 84.2 73.4 70% 91 30.04 0.0
21 14:25 Vrbl 5 10.00 Overcast BKN030 OVC036 82.4 73.4 74% 88 30.04 0.0
21 14:05 Vrbl 6 10.00 Overcast BKN031 OVC036 84.2 71.6 66% 90 30.04 0.0
21 13:45 SE 6 10.00 Mostly Cloudy BKN034 BKN044 BKN060 84.2 71.6 66% 90 30.04 0.0
21 13:25 Vrbl 3 10.00 Mostly Cloudy BKN036 BKN042 84.2 69.8 62% 88 30.04 0.0
21 13:05 Vrbl 3 10.00 Overcast BKN033 OVC041 82.4 69.8 66% 86 30.05 0.0
21 12:45 Calm 10.00 Mostly Cloudy BKN032 82.4 71.6 70% 87 30.05 0.0
21 12:25 Calm 10.00 Fair CLR 82.4 69.8 66% 86 30.05 0.0
Date Time (edt) Wind (mph) Vis. (mi.) Weather Sky Cond. Air Dwpt Max. Min. Relative Humidity Wind Chill (°F) Heat Index (°F) altimeter (in) sea level (mb) 1 hr 3 hr 6 hr
6 hour
Temperature (ºF) Pressure Precipitation (in)